Regional Weather Roundup
Issued by NWS Binghamton, NY

Home | Current Version | Previous Version | Text Only | Print | Product List | Glossary On
Versions: 1 2 3 4 5 6 7 8 9 10 11 12 13 14 15 16 17 18 19 20 21 22 23 24 25 26 27 28 29 30 31 32 33 34 35 36 37 38 39 40 41 42 43 44 45 46 47 48 49 50
000
ASUS41 KBGM 180710
RWRBGM
RWRBGM
BINGHAMTON REGIONAL WEATHER ROUNDUP
NATIONAL WEATHER SERVICE BINGHAMTON NY
300 AM EDT SAT APR 18 2015

Note: "fair" indicates few or no clouds below 12,000 feet with no
significant weather and/or obstructions to visibility.

* = Station(s) that does not report precipitation, such as rain,
snow, etc, also no thunder or fog.

!NYZ009-015>018-022>025-036-037-044>046-055>057-062-180800
...CENTRAL NEW YORK...

CITY           SKY/WX    TMP DP  RH WIND       PRES   REMARKS
BINGHAMTON     CLEAR     47  44  90 SW5       29.98F
CORTLAND       FAIR      37  37 100 CALM      30.00S FOG
DANSVILLE      CLEAR     47  41  80 SE5       30.00F
ELMIRA         CLEAR     43  41  93 SW7       30.00S
ITHACA         NOT AVBL
MONTICELLO     CLEAR     46  45  93 W5        30.00S
PENN YAN       CLEAR     46  41  82 SW7       29.98F
ROME           PTCLDY    40  38  93 CALM      29.97F FOG
SYRACUSE       CLEAR     48  44  86 SW8       29.96F
$$

!PAZ038>040-043-044-047-048-072-180800
...NORTHEAST PENNSYLVANIA...

CITY           SKY/WX    TMP DP  RH WIND       PRES   REMARKS
HAZLETON       FOG       46  46 100 CALM      30.03F VSB 1/4
SCRANTON       CLEAR     50  45  83 E6        29.99F
TOWANDA*       CLEAR     45  43  93 MISG      30.01F
$$
&&
KEY
WCI = WIND CHILL INDEX
VSB = VISIBILITY
HX  = HEAT INDEX
$$


USA.gov is the U.S. government's official web portal to all federal, state and local government web resources and services.